Theta_e
309 310 310 311 311 312 312 313 313 314 315 316 318 318 319 319 319 319 320 320 320 321 321 322 322 322 322 322 322 322 322 322 322 322 322 322 322 321 320 320 320 321 321 325 328 330 336 341 342 343 346 348 345 346 349 349 351 349 347 341 335 335 336 337 339 339 338 338 341 345 345 343 342 344 346 345 345 344 344 345 345 346 347 349 351 351 350 350
309 309 309 310 310 311 311 312 312 312 313 314 315 317 318 319 319 319 319 320 320 321 321 321 322 322 322 322 322 322 321 321 321 322 322 322 321 321 321 320 320 320 321 323 327 333 339 342 342 343 344 344 342 344 346 347 349 348 346 340 336 338 339 339 340 341 340 340 343 345 345 344 343 344 345 343 344 345 344 346 346 347 351 352 352 351 351 350
309 309 309 309 309 310 310 310 311 311 312 313 313 314 316 317 319 320 319 320 320 320 321 321 322 322 322 322 321 321 321 321 321 323 323 322 321 321 321 321 321 320 320 323 329 335 339 340 340 342 342 341 340 341 343 346 347 346 345 340 339 340 339 340 340 341 341 341 344 345 345 345 344 344 344 343 344 344 343 345 346 348 351 352 352 352 351 350
309 309 309 309 309 310 310 310 310 310 311 311 312 313 314 315 317 319 320 320 320 320 321 321 322 322 322 321 321 321 321 321 323 324 322 322 322 322 321 321 322 319 321 327 330 334 336 338 338 338 338 336 336 339 340 344 344 344 344 340 339 340 339 340 340 340 341 342 344 345 345 345 345 345 344 344 343 341 343 344 344 348 351 352 351 352 352 351
308 309 309 309 309 309 309 310 310 310 310 311 311 311 312 313 315 317 319 320 320 320 321 321 321 321 321 321 321 321 321 321 322 323 322 322 322 322 320 321 322 319 324 330 330 330 334 338 338 337 336 332 332 335 336 342 343 342 343 340 340 342 340 340 340 340 341 341 343 345 344 345 346 345 344 344 342 340 342 342 343 346 350 351 351 351 352 351
308 308 308 309 309 309 309 309 310 310 310 310 311 311 311 312 313 314 316 318 320 320 320 321 321 321 321 321 321 321 321 321 322 323 322 322 322 323 322 321 322 320 324 329 329 329 333 337 336 336 335 330 329 331 332 339 342 341 341 341 342 341 340 340 340 340 341 342 343 345 344 346 346 345 344 343 342 341 341 341 342 346 349 350 351 352 351 351
308 309 309 309 309 309 309 309 309 310 310 310 310 311 311 311 312 312 314 315 317 319 320 321 321 321 321 321 320 321 323 322 322 322 322 322 322 323 323 323 322 320 322 326 327 327 330 336 334 333 333 328 328 330 331 336 341 340 339 340 340 340 340 340 339 339 341 342 344 344 344 346 345 343 344 344 342 342 343 343 344 347 348 349 350 351 351 351
308 309 309 309 310 309 310 310 310 310 310 310 310 311 311 311 312 312 312 313 314 316 318 320 320 321 321 321 321 322 323 323 322 322 322 323 323 323 323 324 323 322 322 324 326 326 327 332 332 330 329 327 328 330 330 334 337 338 338 339 339 340 339 338 339 339 341 342 343 344 345 346 345 343 345 344 342 343 344 345 347 348 348 349 350 350 351 351
308 308 309 309 310 310 310 310 310 311 311 311 311 311 311 311 312 312 312 312 313 314 316 318 318 320 320 320 322 323 323 323 321 321 323 324 325 325 324 324 324 323 322 323 325 325 325 329 330 328 327 327 329 330 331 331 333 336 336 338 339 338 336 336 338 339 340 342 343 345 344 345 344 345 345 344 344 345 346 347 348 349 347 349 350 350 352 352
307 307 308 308 309 309 310 310 310 311 311 312 312 312 312 312 312 312 312 313 313 313 314 314 315 318 319 320 322 324 323 322 320 320 323 325 326 327 325 324 324 323 323 324 326 325 324 326 328 327 327 329 329 329 331 330 331 334 335 336 336 335 334 334 336 338 340 342 345 344 342 344 346 345 344 344 345 347 349 349 348 348 348 349 349 350 352 353
307 307 307 308 308 308 309 309 310 310 311 311 312 312 312 312 312 312 312 313 313 313 313 313 314 315 317 321 323 324 323 322 321 321 324 326 326 327 326 324 324 323 324 326 326 325 325 325 327 326 327 328 328 329 330 330 331 332 333 334 335 334 334 334 336 339 340 343 345 343 343 346 348 344 343 345 346 348 349 350 348 347 347 348 349 350 353 353
307 307 308 308 308 308 308 309 309 310 310 310 311 312 313 313 313 313 313 313 313 313 313 313 313 315 319 322 325 324 323 323 322 323 325 326 326 327 326 324 324 323 324 327 326 326 325 324 326 326 326 327 328 329 329 330 331 332 332 332 335 336 335 336 337 339 342 344 344 344 344 346 347 344 343 347 348 348 349 350 349 347 348 349 349 351 354 354
307 307 307 308 308 308 309 309 309 309 310 310 311 312 313 313 313 313 313 313 313 313 312 313 314 317 322 325 326 324 324 323 322 323 325 325 326 325 325 325 323 322 325 327 326 325 325 325 325 325 326 327 329 329 329 331 330 331 331 332 335 335 335 337 338 341 343 343 346 344 337 338 345 344 344 349 348 348 349 350 349 348 348 349 349 351 354 353
306 306 307 307 308 308 308 309 309 309 310 310 310 311 312 313 313 313 313 313 313 313 313 314 317 320 323 325 325 324 323 323 322 324 326 326 325 324 324 325 322 322 326 327 325 325 325 325 325 325 326 327 329 329 329 332 330 331 332 333 335 330 331 339 340 341 343 343 348 343 332 333 341 344 347 350 349 348 350 350 349 349 350 350 350 351 353 353
305 305 306 306 307 307 308 308 309 309 310 310 310 311 312 313 313 313 313 313 312 313 314 316 319 322 326 326 325 325 324 324 325 327 326 326 326 324 324 325 323 323 325 325 325 325 324 325 326 327 327 327 329 328 329 332 332 332 330 329 332 329 331 341 341 341 343 343 347 342 332 334 338 343 349 351 348 348 349 350 350 349 351 351 352 352 352 352
304 304 305 306 306 307 307 308 309 309 309 310 310 311 311 312 313 313 313 312 313 314 316 320 321 322 326 326 325 324 324 326 327 327 326 324 326 326 325 325 324 324 324 324 324 324 324 325 326 327 327 327 327 328 329 329 330 334 331 325 327 328 332 339 340 341 344 344 345 341 336 337 339 344 350 350 348 349 348 350 351 350 351 352 352 353 352 352
304 304 304 305 306 306 306 307 308 309 309 310 310 311 311 312 313 313 313 313 314 316 318 322 324 324 326 323 324 324 325 328 327 326 325 323 325 327 325 325 325 325 324 324 324 324 324 325 325 326 327 326 327 328 326 323 324 330 331 327 328 330 331 333 339 342 343 343 344 342 339 339 341 346 351 350 349 349 348 350 351 351 351 352 352 352 352 353
303 303 304 304 305 305 306 306 307 308 309 309 310 311 311 312 312 312 314 315 318 320 321 323 324 325 326 325 325 325 325 326 325 325 324 322 324 326 325 326 327 325 325 325 324 324 323 324 325 325 326 325 327 328 323 322 325 326 328 326 327 331 330 332 338 341 342 342 343 342 341 340 342 347 351 351 350 349 349 349 350 351 351 352 353 352 352 353
303 303 303 304 305 305 305 306 307 308 309 309 310 310 311 313 314 316 318 318 322 326 326 326 326 325 323 325 326 325 324 323 322 322 322 324 325 325 325 325 327 326 325 324 323 324 324 324 325 322 323 324 326 328 326 329 331 330 331 329 326 327 329 334 338 340 343 343 342 342 341 341 341 346 350 350 350 350 349 350 350 351 352 353 353 352 352 353
303 302 303 303 304 305 305 305 306 307 308 309 309 310 315 317 318 321 319 317 320 322 320 323 324 324 322 322 322 322 322 322 321 321 322 324 325 325 325 325 327 326 325 324 323 324 323 323 323 322 324 325 326 328 330 332 334 334 334 331 329 327 328 334 337 340 344 342 340 342 342 341 341 343 349 351 351 351 350 351 351 351 351 353 353 353 353 353
302 303 303 303 304 305 305 305 306 306 307 308 308 311 316 316 316 317 316 316 317 317 316 317 318 320 320 319 319 320 320 321 321 322 323 324 325 326 326 326 327 326 325 325 323 324 323 321 322 323 325 326 326 328 330 332 333 334 332 330 329 328 329 334 338 341 343 340 338 341 341 341 342 342 348 353 351 350 351 351 351 352 352 352 353 354 353 354
302 303 303 303 304 304 305 305 306 307 308 307 308 312 314 312 311 311 311 315 316 316 316 316 316 317 317 317 318 318 319 320 321 322 323 324 326 326 326 326 326 326 326 325 323 322 322 320 322 324 325 325 326 327 329 331 332 333 332 329 327 328 331 335 341 343 343 339 338 342 341 341 344 343 347 352 351 351 351 351 351 352 353 352 353 354 354 355
302 302 302 303 304 304 305 305 306 308 308 306 308 312 312 310 308 308 309 313 315 317 317 316 317 317 317 318 319 318 319 321 321 323 323 324 326 327 327 326 325 327 326 324 323 321 318 320 323 325 325 325 325 326 328 330 331 331 331 327 325 330 331 331 337 344 344 341 339 340 341 341 344 343 345 350 351 352 352 351 352 352 353 353 353 354 354 355
302 302 302 303 303 304 305 305 308 308 306 307 310 311 310 308 307 307 311 315 317 318 318 317 319 318 320 321 320 321 321 322 322 323 323 324 327 326 326 327 326 326 327 324 323 321 320 322 324 324 324 325 325 326 327 328 327 329 331 329 327 331 332 331 337 342 343 343 342 340 336 338 343 342 344 348 350 350 351 352 352 353 354 354 353 353 354 354
302 302 302 302 303 304 304 305 307 306 305 309 311 310 308 308 307 307 312 318 318 320 320 319 320 320 321 321 321 322 323 323 323 323 323 324 326 326 326 327 326 326 326 325 324 322 322 324 324 323 324 324 324 325 326 326 325 326 330 332 331 333 334 335 338 339 335 335 341 340 330 330 339 342 343 345 347 349 350 352 353 354 354 354 354 353 353 354
302 302 302 302 302 303 304 307 306 304 307 311 310 310 308 308 307 308 314 319 317 321 322 321 322 322 322 323 322 323 323 324 324 323 324 323 324 326 326 327 327 326 326 327 325 322 323 324 323 323 323 324 323 323 326 327 324 323 329 333 333 333 334 335 335 334 329 329 339 341 331 328 332 337 342 343 345 349 350 350 352 354 355 354 355 354 353 353
302 302 302 301 302 302 304 306 305 304 308 310 309 308 308 307 307 310 317 317 316 322 323 323 325 323 323 324 323 323 323 324 324 324 324 323 324 325 325 326 326 327 328 327 322 322 323 323 322 322 322 322 322 322 325 327 324 323 330 334 332 333 334 334 335 332 330 332 337 339 336 329 327 333 341 343 344 350 352 351 351 354 355 354 354 353 352 352
302 302 302 301 302 302 302 304 304 304 306 307 307 306 307 307 307 313 318 316 317 323 324 324 324 322 323 325 323 325 325 324 324 325 324 323 325 326 325 326 326 325 328 325 320 322 324 322 322 322 322 322 322 323 325 327 325 326 332 333 332 333 333 334 334 331 332 332 328 331 334 329 325 332 342 346 345 349 352 352 351 352 354 354 353 352 352 352
302 302 302 301 302 302 303 303 304 304 304 305 306 306 306 306 309 315 318 316 319 323 324 323 323 322 324 325 324 325 326 325 325 325 324 323 325 326 325 326 327 326 327 326 323 324 325 323 323 323 321 322 323 325 326 326 326 328 331 332 332 333 332 333 333 330 330 328 324 327 330 328 325 329 338 343 343 345 349 350 351 353 353 353 353 352 351 352
302 302 302 302 302 302 303 304 304 304 304 305 305 305 306 311 315 316 315 317 320 322 322 322 322 324 325 324 325 326 325 325 326 326 325 324 324 325 325 326 327 327 327 327 325 325 325 324 324 323 322 324 324 325 325 326 327 329 330 331 331 332 333 332 332 329 326 324 325 327 329 329 325 326 332 341 344 344 343 344 348 352 353 353 353 352 351 351
301 302 302 301 302 302 302 304 305 304 304 305 305 305 310 316 318 315 316 319 319 321 323 322 322 323 324 324 324 325 324 325 326 326 325 324 323 324 324 324 325 326 325 325 324 325 324 323 323 323 323 324 324 324 326 327 327 328 330 329 327 327 330 328 327 328 325 322 326 328 328 328 324 326 332 341 345 342 338 338 341 347 354 355 353 353 352 351
301 302 302 302 302 302 302 304 304 304 304 305 304 307 312 316 315 314 317 318 316 320 323 322 323 323 323 323 323 323 324 324 326 326 325 324 323 324 323 324 325 322 320 321 323 324 325 324 323 323 323 323 323 323 324 326 326 327 328 325 322 322 325 324 322 325 324 323 327 328 327 326 325 330 335 339 341 340 339 338 338 341 349 355 355 354 353 352
302 302 302 302 303 303 303 303 304 304 305 304 305 309 312 314 314 315 317 317 317 321 323 322 323 323 322 322 322 323 322 323 325 326 326 325 324 323 323 324 326 323 321 321 321 320 321 325 325 323 323 323 323 321 320 321 323 325 324 322 321 320 322 322 322 323 323 322 325 329 328 324 326 332 337 338 339 340 339 339 338 340 344 351 355 354 352 353
302 302 302 303 303 303 304 304 304 304 304 304 307 311 312 312 315 316 316 318 319 321 322 322 322 322 322 322 323 323 321 323 325 324 325 325 323 323 322 323 324 325 324 323 321 319 318 320 324 324 323 323 323 322 322 323 324 325 326 326 323 321 322 322 321 321 322 322 323 327 328 324 324 331 338 338 338 339 339 338 339 342 345 349 353 353 353 353
303 302 303 303 304 306 307 307 307 305 304 306 309 310 311 312 314 315 317 318 319 320 321 322 322 321 322 323 323 322 321 322 324 325 324 325 324 324 323 323 324 326 325 321 321 321 317 318 324 325 324 324 323 323 325 325 323 325 327 325 322 324 325 322 322 322 322 321 322 324 326 328 329 335 341 339 338 338 338 339 340 343 346 347 349 352 352 352
302 304 303 303 307 310 311 311 311 308 307 309 309 309 310 313 315 316 319 319 318 319 319 319 320 318 318 320 322 323 321 321 324 324 324 324 325 325 325 324 324 326 325 322 322 322 317 318 325 326 324 324 323 324 325 324 322 324 323 321 324 330 328 322 321 323 321 321 322 323 325 329 330 334 339 337 336 336 336 338 339 342 345 346 348 351 351 351
302 302 301 303 309 313 313 312 313 312 311 311 309 309 311 313 315 316 320 322 319 319 318 316 317 317 315 317 319 322 322 320 322 322 322 323 323 324 326 326 326 326 326 326 324 324 320 319 324 325 323 324 325 324 325 325 325 323 321 322 326 330 329 325 321 321 322 320 321 321 323 325 324 326 335 336 335 335 335 336 336 339 344 346 347 349 350 350
300 300 304 309 310 312 314 313 313 314 314 312 310 311 311 312 314 315 318 321 319 319 318 315 317 318 316 316 318 321 322 319 320 322 321 322 323 324 326 326 327 327 327 327 325 326 323 318 321 324 323 323 325 324 322 323 326 325 324 327 326 322 323 324 321 321 321 320 321 321 321 323 322 324 332 335 335 335 335 336 335 336 343 347 347 347 349 350
301 302 309 313 310 311 312 311 313 316 316 313 311 312 311 311 313 314 315 317 317 318 318 317 318 319 319 318 319 321 322 319 320 321 320 322 322 324 326 326 327 327 327 328 326 327 326 319 318 323 324 323 323 321 318 320 324 325 325 328 327 323 322 323 323 322 321 320 320 320 319 321 326 330 333 335 337 336 335 336 336 335 339 345 347 347 348 350
303 306 310 311 309 310 309 308 313 317 316 314 313 311 312 312 312 314 313 314 315 316 316 317 318 319 319 320 320 322 322 320 321 321 320 322 322 323 325 326 326 327 327 328 326 327 327 322 318 322 324 321 320 320 319 320 322 321 321 322 323 325 324 324 323 323 322 320 320 320 319 320 329 335 335 336 337 335 335 336 336 336 335 339 345 346 347 350
304 308 311 311 308 306 306 308 313 316 315 315 314 312 313 312 312 313 313 313 314 314 315 316 317 317 318 319 319 321 321 321 321 320 320 322 322 322 325 325 325 326 326 327 327 326 327 324 319 319 320 318 319 323 323 322 323 322 321 321 322 323 322 321 321 322 323 321 320 321 319 321 330 337 335 335 335 335 335 335 335 336 334 335 342 345 347 350
306 309 309 309 306 306 309 310 311 314 315 316 314 313 314 313 312 313 312 313 313 313 314 314 314 316 316 317 319 319 321 320 321 321 320 321 322 322 324 325 326 326 326 326 327 327 328 326 322 319 320 321 323 325 323 323 324 324 324 323 323 324 321 318 318 321 322 321 321 321 319 324 333 336 335 335 336 334 334 335 334 335 335 334 341 345 346 350
307 307 305 305 307 310 312 311 309 312 313 314 315 315 314 314 313 313 312 313 312 312 313 313 314 314 315 316 318 318 319 319 319 320 320 320 321 322 324 324 324 325 326 325 326 327 328 326 323 320 323 326 325 326 325 324 323 322 323 325 324 323 323 322 322 323 321 320 321 321 318 324 332 336 336 335 334 334 334 334 334 334 334 336 344 346 346 350
306 306 306 307 310 312 313 312 312 312 312 314 314 313 315 315 314 313 313 313 313 313 312 312 313 314 314 316 316 317 317 317 317 318 318 318 319 321 323 323 323 324 324 326 327 326 325 325 324 320 321 323 323 324 324 323 323 321 321 324 324 324 325 324 325 325 322 320 322 320 318 323 332 337 337 335 334 334 332 333 333 333 334 337 345 348 347 350
305 307 309 311 312 313 314 313 314 313 314 315 315 315 316 316 315 315 314 315 315 314 313 313 314 314 314 315 315 316 316 316 316 318 318 318 319 320 322 322 323 323 324 329 331 327 325 326 325 320 319 320 320 320 320 321 323 322 322 323 324 324 324 323 321 320 319 321 323 321 319 324 333 336 336 335 336 335 333 333 332 332 334 341 349 351 349 351
305 307 309 310 313 314 314 314 314 313 313 314 314 315 315 315 316 316 314 315 316 315 315 315 315 315 314 315 315 315 316 316 317 318 319 319 319 320 322 323 324 325 326 329 331 330 327 328 328 324 321 321 321 323 325 325 323 320 321 322 322 323 324 323 320 317 319 321 322 324 325 326 330 335 334 334 334 334 334 334 333 333 335 342 350 350 350 351
306 307 308 311 312 312 312 314 314 313 313 313 314 315 314 315 316 317 316 315 315 316 316 316 317 317 316 316 316 316 317 317 317 317 318 320 320 322 324 324 324 326 327 327 331 333 331 328 329 329 326 325 326 328 328 327 324 322 322 321 322 324 323 321 318 319 323 321 318 326 331 326 327 333 335 334 334 334 334 333 333 333 334 340 348 349 348 350
306 307 309 310 310 310 311 312 312 311 310 311 312 313 314 314 314 316 318 317 315 316 316 316 317 317 318 318 318 318 318 318 319 319 319 319 320 321 322 323 324 326 327 327 330 334 333 329 330 329 328 328 328 328 328 327 327 325 324 323 322 323 323 321 320 322 325 321 319 328 332 328 330 333 332 334 334 333 334 333 333 332 331 338 349 352 349 349
305 306 307 308 308 308 309 309 309 308 307 309 311 311 313 313 313 315 317 318 318 317 316 317 317 316 318 318 319 320 321 320 320 321 321 321 321 321 321 321 323 325 326 325 328 332 332 331 331 329 327 328 329 329 328 327 326 325 325 325 325 324 323 322 323 324 324 323 323 328 331 331 332 331 331 333 333 332 333 332 332 331 330 337 349 353 350 348
305 305 305 305 305 306 306 306 307 308 308 309 310 309 310 312 313 315 316 317 318 318 317 317 317 317 318 318 319 321 323 322 322 324 325 324 323 322 321 321 323 324 324 325 328 331 330 329 332 330 325 325 328 329 328 327 326 324 325 326 326 325 324 323 324 324 324 323 324 326 327 329 331 332 332 332 331 332 333 332 332 332 332 337 346 351 349 347
304 304 303 303 304 305 306 308 308 308 308 308 308 309 310 311 312 312 313 315 316 318 318 317 317 319 320 320 321 322 323 324 324 325 326 325 324 324 324 325 325 325 325 327 328 331 330 329 332 330 324 322 326 327 327 328 326 323 322 325 325 324 324 324 324 325 324 324 325 324 322 325 331 332 331 331 331 332 332 332 333 332 333 338 344 350 349 349
304 304 303 303 304 305 306 307 307 307 307 307 309 310 311 311 311 311 311 314 316 317 317 316 316 317 319 321 322 322 322 321 321 322 322 322 323 324 325 327 327 327 328 328 329 331 332 331 330 329 324 323 325 326 325 324 323 320 322 325 327 326 326 326 325 326 327 325 324 322 323 327 331 331 329 330 331 330 330 333 333 334 339 344 346 349 350 348
Wind_Speed
15 15 15 16 16 16 16 16 16 16 16 15 15 15 15 15 15 15 14 14 15 16 16 15 16 16 16 17 18 19 20 21 20 20 19 15 12 13 13 13 12 10 10 10 14 17 18 17 15 14 14 12 9 9 10 8 8 5 3 3 1 1 2 3 4 2 3 9 11 14 14 9 11 12 8 8 9 13 13 10 13 8 6 12 18 25 28 26
15 15 16 16 16 16 17 17 17 17 17 16 16 16 16 16 16 15 15 14 14 15 16 15 15 15 16 17 19 21 22 22 21 20 14 8 5 7 10 13 15 15 14 14 16 19 20 18 16 16 14 11 9 9 9 9 9 7 4 4 1 1 2 3 4 4 3 8 11 14 14 10 11 14 12 11 11 14 12 12 13 11 13 17 23 27 27 27
15 15 15 15 16 16 16 17 17 17 18 18 17 17 17 17 17 16 16 15 15 15 15 16 16 16 17 17 20 21 24 25 21 13 6 4 2 4 5 10 16 17 16 15 16 17 17 16 16 15 13 10 9 9 9 8 9 9 7 4 1 1 0 2 5 7 5 8 13 14 14 11 12 14 13 11 12 14 12 13 16 14 17 22 26 28 27 27
14 15 15 15 15 16 16 16 17 17 17 18 18 18 18 18 18 18 17 17 16 15 15 16 16 17 17 18 20 20 25 23 11 3 7 1 6 6 6 5 13 18 16 13 15 16 14 15 16 14 12 10 10 10 9 10 8 7 6 5 1 2 2 3 6 8 7 9 13 14 13 11 13 14 13 12 10 11 12 16 19 18 21 25 28 28 27 27
14 14 15 15 15 15 16 16 16 17 17 17 18 18 19 19 19 19 19 18 17 17 16 16 17 17 18 19 20 20 21 12 2 6 1 7 12 9 7 4 7 15 18 15 15 16 15 16 16 14 12 10 10 10 10 13 10 5 7 9 5 1 3 2 5 9 9 9 13 15 13 12 14 13 13 13 9 6 11 16 17 19 24 28 29 29 27 27
15 15 15 15 15 15 16 16 16 16 17 17 17 18 18 19 20 20 20 19 19 18 18 17 17 18 19 19 20 19 14 6 1 4 10 13 13 10 7 4 4 9 17 17 16 17 18 18 17 16 13 11 11 11 10 14 13 7 7 11 8 6 5 2 4 10 11 12 14 15 13 14 14 13 13 15 8 3 7 14 15 18 23 28 30 29 28 27
16 16 16 15 15 15 16 16 16 16 16 16 17 17 18 18 19 19 19 20 20 20 19 18 18 18 19 19 21 18 13 13 12 14 14 11 8 7 7 5 6 9 15 18 18 19 20 21 21 19 14 11 12 13 11 11 14 9 7 10 10 8 7 6 6 11 14 14 14 14 14 16 15 11 12 15 8 4 5 13 15 18 22 26 29 28 28 28
16 16 17 16 16 16 16 16 16 16 16 17 17 17 18 18 19 19 19 20 19 20 20 19 19 18 19 19 18 16 14 15 13 11 8 5 6 6 6 5 9 12 16 19 22 22 22 23 23 19 13 12 12 13 11 9 12 12 9 9 10 9 9 9 8 11 15 14 14 16 15 16 15 10 11 15 10 4 7 14 16 19 22 25 27 27 27 27
16 16 17 17 17 17 17 17 16 16 16 16 17 18 18 19 19 19 18 19 19 20 20 19 19 18 18 18 15 13 13 13 10 8 6 6 8 8 6 5 8 13 17 20 22 23 22 23 25 21 14 13 13 12 12 10 8 10 13 12 10 10 9 9 11 13 16 15 16 17 14 15 14 9 10 14 11 7 11 16 18 20 22 24 26 26 26 26
17 17 17 17 17 18 18 18 18 17 17 16 17 17 18 19 19 19 18 19 19 19 19 18 18 17 17 16 13 10 10 13 13 11 10 11 11 10 8 7 8 12 18 20 22 24 25 22 23 22 13 12 13 11 12 11 5 5 10 11 9 9 8 9 12 15 16 16 19 17 12 14 15 9 8 13 13 10 13 17 18 20 21 23 24 25 25 25
18 18 18 18 18 18 18 18 18 18 17 17 17 17 18 19 19 19 19 19 18 19 19 18 17 17 16 14 13 12 11 15 17 14 13 13 13 12 10 9 9 11 17 21 23 25 26 22 19 19 11 9 11 11 13 13 8 6 6 7 8 9 9 11 12 16 15 14 18 15 10 12 13 10 8 15 17 12 14 17 19 19 20 23 23 23 23 24
19 19 19 19 19 19 19 19 19 18 18 18 18 18 18 19 19 19 19 19 18 18 18 17 16 15 13 13 17 17 14 15 17 15 15 15 15 14 11 11 8 10 16 21 23 23 24 21 18 19 11 6 10 10 10 13 10 8 8 7 7 8 9 12 12 17 15 12 18 14 8 9 12 12 10 16 19 15 15 16 18 19 20 23 23 23 22 23
19 19 19 19 19 19 19 19 19 18 18 18 18 18 19 18 18 19 19 19 19 18 17 15 14 13 11 12 17 19 16 17 18 14 13 12 13 12 9 10 7 8 15 19 20 20 21 17 18 22 16 9 9 5 3 11 11 8 10 9 6 6 7 11 12 16 15 12 19 15 6 8 13 15 13 18 20 18 16 16 18 19 19 22 23 23 22 23
18 19 19 19 19 19 19 20 20 19 18 18 18 18 19 17 18 19 19 20 19 17 15 12 11 10 10 13 17 19 16 16 15 9 4 4 6 8 9 8 5 7 13 15 14 17 18 14 15 19 17 14 9 4 4 9 10 9 9 8 7 7 6 11 12 16 14 12 20 16 6 5 10 16 17 19 21 20 18 17 18 19 19 21 23 23 22 23
17 19 19 19 19 19 19 19 20 20 19 19 18 18 18 17 17 18 18 19 18 16 13 11 11 8 11 17 15 11 7 6 7 6 2 2 1 7 10 8 6 7 11 12 11 15 17 13 14 15 16 15 9 7 9 8 8 8 8 8 9 7 5 11 12 16 13 11 19 15 6 4 6 15 20 20 21 20 19 18 19 19 20 21 22 22 21 22
18 19 19 19 19 18 18 19 20 20 19 19 19 19 18 17 16 17 19 19 17 14 10 9 9 7 9 11 6 3 2 4 8 8 2 2 1 6 10 9 8 9 10 11 9 12 16 14 15 15 15 14 10 9 9 8 8 8 9 8 9 9 6 9 11 16 14 11 17 15 8 4 4 14 20 20 21 20 18 19 20 20 21 21 21 21 20 21
19 20 20 20 19 19 18 19 19 19 18 18 19 18 17 17 16 17 17 16 14 12 10 9 7 7 11 10 6 5 4 6 8 6 2 5 4 7 12 12 11 11 10 9 9 11 16 15 13 13 12 11 10 11 10 10 10 8 9 9 9 10 8 8 10 15 15 11 15 16 11 5 3 11 18 19 21 21 19 19 20 21 21 21 21 21 21 21
21 21 21 21 20 20 19 19 19 18 17 17 17 17 16 16 15 15 16 14 11 9 9 9 7 5 9 10 8 7 9 10 8 6 8 9 5 10 15 13 12 13 12 10 11 13 15 16 13 10 10 11 11 12 12 12 12 10 11 9 8 9 9 10 10 13 17 14 14 16 14 11 5 9 15 18 19 20 19 18 19 21 21 21 21 22 22 22
21 22 22 22 21 20 20 20 19 18 17 15 14 15 14 12 12 11 10 9 7 7 6 6 10 6 6 4 8 9 8 10 11 12 11 8 5 11 13 11 14 15 13 10 13 16 15 13 12 11 11 13 15 15 15 14 14 13 12 10 10 9 9 11 9 13 18 14 13 15 14 14 10 9 12 15 18 19 18 18 18 19 21 22 22 22 22 23
21 22 22 22 21 19 20 20 19 19 17 13 12 12 9 8 8 4 4 10 15 16 15 10 14 16 16 12 11 10 11 15 14 11 10 10 9 13 13 13 15 14 12 9 11 16 16 11 11 13 15 17 19 19 18 18 15 13 12 12 12 10 9 12 11 13 17 13 12 15 14 14 13 9 10 14 16 17 18 18 18 19 20 21 22 22 23 24
22 22 22 23 21 19 19 19 19 17 14 12 12 9 4 5 5 4 8 14 18 19 22 21 18 23 25 19 15 12 10 11 12 10 9 12 14 15 15 16 14 11 12 12 11 13 14 12 13 17 17 17 20 20 20 20 16 13 13 11 11 11 9 12 10 11 16 12 10 14 14 14 14 10 9 12 14 15 18 19 20 20 20 21 22 23 23 23
22 22 23 23 22 20 18 18 18 13 11 12 10 4 2 3 3 6 9 13 19 17 21 22 20 25 27 23 20 16 11 11 13 14 12 15 18 16 15 17 13 10 13 13 10 10 11 13 16 18 18 17 18 19 21 21 18 14 12 10 10 11 8 9 9 10 13 10 8 12 13 12 13 12 10 13 15 15 18 20 20 21 21 21 22 23 23 23
23 23 24 24 23 20 17 18 14 8 10 12 5 3 1 3 5 8 7 11 19 16 17 19 19 23 22 18 17 15 15 15 14 15 18 20 20 19 16 15 14 12 13 13 11 10 10 12 16 18 17 18 18 19 21 19 16 13 12 10 10 11 9 8 9 12 13 10 8 10 11 10 11 13 12 14 17 16 17 19 20 21 22 23 23 23 24 24
24 24 24 25 25 20 18 17 9 6 12 10 0 5 1 4 8 11 7 9 13 11 13 15 15 17 15 9 9 13 15 14 11 13 20 24 22 19 16 15 15 14 13 16 16 14 11 10 15 18 17 17 18 18 20 16 13 15 16 13 11 11 12 11 10 11 11 10 9 9 8 8 11 14 13 13 17 17 17 19 20 21 22 22 23 24 25 25
24 25 25 26 26 22 19 12 5 9 11 4 4 4 3 7 9 11 6 8 9 6 8 10 10 10 11 9 8 10 9 11 13 12 19 27 24 17 14 15 14 13 15 18 16 15 12 7 10 16 16 17 18 16 18 15 11 15 17 17 16 12 13 15 13 11 9 9 10 10 8 8 10 15 14 12 14 16 18 19 20 22 23 23 24 25 26 26
23 24 25 26 26 25 18 7 7 12 7 2 3 5 6 7 9 8 3 5 6 3 5 7 7 6 9 9 9 9 6 8 11 13 18 24 25 18 13 13 11 12 15 15 11 9 10 9 9 15 16 19 19 15 18 18 12 12 15 18 19 15 13 15 15 12 9 8 9 11 9 8 8 12 14 14 15 16 17 18 21 24 24 25 25 25 26 27
23 23 24 25 25 26 20 11 12 12 4 3 5 5 6 6 7 5 3 5 5 2 4 5 5 5 7 7 11 10 3 3 7 14 19 21 25 22 14 11 10 11 11 10 9 8 11 13 11 14 17 17 16 14 17 19 14 11 14 18 20 16 13 14 15 13 10 8 8 11 10 8 8 10 11 13 16 16 17 18 20 24 27 27 28 27 28 28
23 21 23 24 22 23 22 17 14 11 5 7 5 5 5 6 5 2 4 6 2 3 4 5 3 4 5 7 14 10 3 1 4 10 18 19 22 20 15 14 12 12 12 10 9 9 13 16 13 14 15 13 14 15 16 18 16 14 13 14 17 17 15 14 13 12 11 10 9 12 12 9 9 9 8 11 14 15 17 19 19 23 28 29 30 30 29 29
24 21 21 23 22 20 20 16 12 10 7 5 5 6 7 6 3 2 5 5 2 3 4 6 5 6 7 6 13 13 7 6 3 5 15 19 20 15 12 16 15 13 15 14 11 7 10 16 17 15 13 12 13 16 17 18 16 13 11 11 14 16 15 13 12 11 12 13 12 13 14 10 9 9 9 10 12 13 15 16 17 23 29 30 31 31 30 29
24 21 20 23 23 21 21 17 12 10 8 6 6 5 5 3 3 5 7 4 1 3 6 7 6 8 9 7 9 12 9 8 5 7 14 17 20 16 9 12 15 12 13 15 16 10 7 11 14 14 13 12 13 15 16 18 17 11 8 10 12 12 12 11 10 9 11 13 13 15 16 12 10 10 9 10 12 13 13 12 14 20 27 29 30 31 31 31
25 23 20 21 22 21 21 19 14 11 9 7 5 3 3 4 5 7 7 1 2 5 8 7 8 8 9 6 5 8 8 8 9 10 11 13 16 16 9 9 12 10 10 12 14 14 11 10 9 12 16 15 13 14 13 15 17 12 8 11 10 8 8 8 8 8 11 11 12 16 17 15 12 10 8 10 14 15 12 11 12 16 23 28 29 30 31 31
26 24 21 19 20 21 20 18 16 15 11 7 5 5 6 6 8 10 6 2 1 6 6 6 9 10 8 5 5 6 5 6 11 12 11 11 12 14 13 11 10 10 11 10 11 14 14 12 10 11 16 18 14 11 11 12 15 13 11 12 11 8 8 8 9 9 10 11 12 16 18 15 12 11 11 10 12 13 12 12 12 12 17 24 27 28 29 30
25 24 22 19 18 20 19 17 17 16 11 7 7 7 7 9 9 10 9 5 2 3 2 4 8 9 8 7 7 6 5 6 10 12 13 13 12 13 17 16 15 12 10 10 11 11 10 12 15 13 13 18 18 12 11 12 13 14 13 12 11 11 10 11 11 10 10 12 14 14 14 12 10 11 14 15 14 15 15 16 16 13 13 18 24 27 27 29
25 24 23 19 17 17 18 16 15 15 11 8 8 8 10 13 9 8 11 12 4 2 4 4 6 9 9 9 6 4 6 7 10 12 12 13 12 12 15 18 20 15 9 10 10 10 11 10 16 16 11 16 20 16 13 12 12 15 14 13 13 12 11 10 9 10 10 10 13 14 11 10 9 7 9 13 15 17 17 18 16 14 13 15 19 23 25 28
26 23 21 18 14 14 15 14 13 12 10 11 9 9 13 12 8 8 10 11 9 6 6 5 6 8 9 10 8 6 6 5 9 11 11 12 11 11 12 15 19 17 11 10 8 10 13 10 12 19 16 15 19 18 16 14 12 13 14 14 13 13 12 10 9 12 11 9 11 12 8 8 9 6 5 7 9 12 15 15 15 15 15 15 16 21 24 27
27 23 20 16 10 9 10 11 10 9 11 13 10 11 13 10 8 7 6 7 10 9 8 8 9 10 9 9 9 9 8 5 7 9 9 12 13 13 13 12 17 19 14 10 6 7 11 9 9 17 19 19 18 18 19 16 10 9 13 15 13 14 14 12 11 13 13 12 11 10 8 9 10 9 11 13 13 13 13 13 14 16 16 16 18 21 24 26
26 25 23 13 7 6 6 8 8 10 13 12 12 12 11 10 12 10 5 4 5 6 9 9 8 10 11 9 10 12 11 8 9 8 8 11 11 13 16 13 16 20 18 13 7 6 8 7 9 16 18 19 20 19 20 20 14 9 11 15 13 12 13 12 11 11 12 13 10 11 13 12 11 10 11 16 18 17 16 15 15 15 15 18 20 22 24 26
26 27 21 7 7 7 7 10 6 12 14 11 14 15 11 11 14 13 9 6 4 6 10 9 7 9 10 9 10 12 12 9 9 9 9 8 8 12 16 14 15 20 21 18 10 6 8 8 9 16 17 17 19 18 16 19 22 16 10 12 13 11 11 11 11 11 13 13 10 14 16 13 12 10 9 13 15 15 16 15 14 12 14 18 20 21 23 24
24 21 11 5 7 9 8 10 3 12 13 10 12 12 10 12 15 16 16 12 9 9 10 10 9 8 9 10 9 9 12 10 9 8 8 7 6 9 13 13 14 18 22 20 12 7 8 7 7 13 16 15 14 14 13 15 20 19 13 11 12 11 10 11 10 9 12 12 11 14 15 11 10 11 12 13 12 11 11 10 9 9 13 17 18 19 21 24
18 12 6 6 9 10 11 11 4 11 10 10 12 10 10 12 15 19 21 17 12 10 10 11 11 9 10 11 10 8 9 9 9 7 7 7 6 6 10 13 13 16 20 22 16 10 8 7 7 9 14 15 11 12 16 15 15 16 14 12 12 11 9 11 12 11 11 11 10 12 13 10 8 10 14 15 12 11 10 10 10 11 14 16 17 18 20 23
14 7 4 5 10 15 15 10 8 9 8 10 12 12 12 11 11 15 21 20 17 15 14 13 12 11 11 11 11 9 8 8 10 8 6 8 7 5 8 11 13 14 16 18 16 11 8 8 8 7 9 12 12 14 19 20 17 15 13 14 14 11 10 12 13 13 13 12 12 12 12 10 7 7 11 15 15 14 14 14 13 15 19 18 16 17 18 21
11 7 5 9 15 17 12 8 9 9 9 10 12 13 12 10 11 13 16 18 17 16 15 14 14 13 12 12 12 11 9 9 10 10 7 8 10 6 5 6 10 13 13 12 14 13 9 7 8 9 8 11 14 16 18 21 22 19 15 15 15 13 13 12 11 12 13 14 14 14 13 10 8 8 10 12 15 16 18 18 16 18 21 17 13 14 17 20
10 13 15 14 12 9 6 7 9 9 10 11 14 16 14 11 11 13 14 16 15 13 13 13 14 15 14 13 13 12 11 10 10 11 10 8 10 10 6 3 6 10 9 9 12 13 10 6 8 9 8 9 13 15 16 18 20 18 16 16 16 16 17 15 12 11 12 14 14 14 14 11 8 8 8 9 13 16 19 20 18 19 20 15 11 13 15 18
14 19 18 11 5 5 7 7 7 8 9 12 14 16 16 15 14 13 13 14 13 12 12 13 13 15 14 13 13 14 12 11 11 12 12 10 9 12 14 10 7 9 9 6 6 10 10 7 8 9 8 9 11 12 13 15 14 13 14 17 19 21 23 19 15 12 13 16 17 15 13 10 8 8 8 9 12 15 18 21 21 21 21 16 9 11 14 16
16 15 14 10 7 9 10 9 8 7 8 10 12 13 14 14 15 17 16 15 14 13 12 12 14 15 14 14 15 15 15 13 10 9 11 11 9 11 15 13 10 11 9 3 4 5 10 8 9 10 10 11 11 11 11 11 11 11 14 20 22 24 25 19 13 13 14 15 18 16 12 11 12 13 12 12 14 14 14 17 19 19 20 15 8 9 12 14
11 8 8 8 8 11 13 13 12 9 8 8 9 11 12 11 13 17 18 16 17 17 13 11 14 14 15 16 15 15 16 16 13 9 9 9 9 9 11 11 11 10 5 8 8 6 7 8 11 13 13 12 11 11 12 12 13 14 18 22 23 23 26 21 14 14 14 12 14 15 13 15 16 16 15 16 16 14 12 13 15 16 18 16 10 10 11 12
8 6 6 6 6 9 11 11 9 6 8 9 7 7 11 11 10 12 14 15 16 17 14 12 14 14 14 16 15 14 15 16 15 14 12 10 9 7 8 9 11 9 3 7 10 8 6 8 13 16 17 17 16 15 15 15 16 17 20 23 22 22 24 23 19 18 16 12 13 14 15 18 19 17 17 17 16 15 14 14 16 19 21 19 14 14 13 13
8 8 9 8 6 7 6 7 9 9 11 11 9 9 12 12 11 10 10 12 15 17 13 12 16 17 15 15 13 12 14 15 15 15 14 12 10 9 8 9 12 11 7 8 10 7 6 10 13 15 18 20 21 21 20 18 17 18 19 21 22 23 24 23 23 23 20 15 13 13 16 19 19 20 21 17 14 15 16 17 20 25 26 21 14 14 15 14
10 11 11 8 7 9 11 14 15 13 12 11 8 9 11 12 13 12 8 8 12 15 13 12 16 17 18 18 14 12 12 12 12 14 13 12 12 11 10 10 12 14 12 10 9 7 6 9 12 16 17 19 22 23 24 23 21 20 22 22 23 25 26 24 24 25 25 22 20 18 18 19 18 19 23 23 22 21 20 20 23 26 26 22 15 14 16 15
11 11 10 9 9 11 14 14 12 10 10 9 8 9 11 12 13 10 9 9 9 10 13 14 14 13 15 18 16 13 12 10 10 9 8 9 11 10 9 8 9 13 13 11 8 7 6 8 9 11 12 15 19 22 24 25 24 23 24 24 24 25 26 26 24 23 23 23 23 24 22 19 15 16 20 24 27 26 22 22 23 23 25 25 19 16 17 16
11 11 10 9 9 9 10 10 8 7 7 7 7 7 8 9 8 10 10 12 13 12 10 8 8 8 7 9 10 10 10 8 8 7 6 6 7 6 6 6 6 8 11 10 8 8 7 7 7 7 9 11 14 19 22 23 24 25 24 24 25 24 22 22 21 21 21 20 22 23 21 15 13 14 17 20 24 23 21 21 23 24 27 27 21 18 18 18
9 10 10 9 8 8 8 7 6 7 7 6 6 6 6 7 8 10 9 9 10 10 9 12 12 9 6 5 5 3 5 6 8 10 10 10 11 12 11 10 9 8 7 8 8 7 6 6 6 7 8 8 11 16 18 19 19 18 18 19 22 22 21 21 20 22 23 21 18 17 16 14 14 16 18 20 22 23 21 22 24 25 25 24 22 20 20 21
Wind_Direction
321 320 320 319 318 318 318 319 319 319 318 319 319 319 320 319 318 315 314 313 313 316 320 325 327 328 331 330 328 328 324 320 318 312 308 305 296 285 267 246 238 229 216 195 191 189 176 175 180 175 173 184 205 204 193 204 207 198 244 245 156 148 129 131 146 110 101 135 151 161 167 161 152 167 164 162 167 156 158 157 151 137 125 140 140 146 151 154
321 319 319 318 316 316 316 317 317 317 316 316 315 314 314 314 314 313 312 310 308 310 312 318 321 325 329 330 332 332 329 325 316 308 299 282 288 292 266 242 232 228 220 207 201 191 177 177 175 171 177 187 196 190 187 195 197 198 239 244 192 65 89 123 154 149 144 145 153 165 170 167 159 163 169 174 166 163 165 159 158 142 127 135 140 147 152 155
322 321 320 318 318 316 315 315 315 315 315 315 314 313 311 310 310 310 310 308 306 304 305 310 314 319 323 327 329 330 332 325 312 297 246 209 341 344 291 241 223 222 222 214 202 191 183 180 176 175 187 204 199 187 196 191 193 213 236 251 164 99 48 168 177 175 166 150 158 167 170 169 162 162 174 183 169 175 182 167 169 160 145 145 147 151 154 158
323 323 322 321 320 318 317 316 314 314 313 313 313 312 310 308 307 307 307 306 304 302 301 303 307 313 316 322 324 330 332 319 301 217 176 209 341 347 337 264 216 210 208 206 198 193 193 187 184 188 201 222 208 197 209 189 191 215 221 253 162 89 274 210 193 187 174 162 164 165 169 170 164 166 180 186 176 186 194 178 177 169 156 153 153 157 159 162
325 325 324 322 322 320 319 317 317 315 314 313 311 311 309 308 306 305 304 303 303 302 301 299 302 307 309 316 318 326 329 313 114 113 196 322 325 325 329 307 224 201 189 194 199 196 198 191 189 200 215 231 210 203 218 200 207 228 213 244 258 288 283 209 197 194 180 173 167 166 172 167 165 176 186 188 185 186 189 183 181 170 161 159 158 160 163 166
326 326 325 324 323 322 321 320 320 318 317 315 312 311 308 307 305 304 303 303 302 301 300 299 300 302 306 311 313 320 320 294 50 316 302 311 312 324 324 268 227 200 186 193 198 194 196 190 191 204 214 227 217 214 223 204 208 234 222 233 245 251 267 265 206 192 183 184 177 171 171 164 171 183 188 193 186 117 174 179 174 169 164 162 162 163 166 169
326 326 324 324 323 322 321 321 321 320 319 317 314 312 308 306 304 303 303 302 301 300 299 299 299 300 303 306 309 312 288 273 288 289 294 297 285 326 329 248 220 204 191 195 195 194 193 191 197 206 212 221 222 223 228 203 200 226 235 224 231 233 239 245 215 191 191 195 181 171 169 172 182 180 183 196 181 94 158 169 164 165 165 165 165 167 169 172
325 323 322 322 322 321 320 320 320 319 318 318 317 313 309 306 303 303 302 302 301 299 298 298 299 299 301 304 306 303 279 273 287 291 291 282 274 305 316 260 224 205 198 200 198 197 195 196 201 204 213 221 222 222 221 210 205 222 238 231 232 232 237 240 220 198 198 199 180 172 176 181 186 174 178 192 180 142 155 158 160 161 164 169 171 171 172 174
324 322 321 320 320 320 319 318 318 317 317 316 315 312 310 307 304 304 302 301 299 297 297 296 297 297 297 299 297 289 280 278 286 297 299 293 293 294 292 269 233 212 207 207 203 201 200 203 205 203 216 226 224 223 213 217 216 215 231 240 239 238 243 239 223 204 198 194 179 178 183 181 180 173 180 186 175 154 156 158 161 163 166 173 175 174 174 176
323 322 321 320 320 318 317 317 316 317 316 314 313 309 308 306 305 305 304 302 299 297 296 295 296 295 294 294 287 277 281 287 292 297 294 293 294 293 289 266 241 223 212 208 206 206 206 209 208 207 228 238 226 226 215 221 243 224 232 243 247 255 251 237 224 205 198 190 181 183 184 175 173 182 187 176 171 159 158 163 165 167 171 175 177 177 177 178
323 322 321 320 320 317 317 317 316 316 315 314 312 308 305 304 304 305 305 302 299 297 296 295 294 292 291 281 267 266 281 291 294 291 284 288 288 286 282 258 241 230 216 209 211 211 211 213 208 208 227 241 222 224 222 223 246 245 235 243 240 257 247 227 220 199 191 185 185 187 178 168 171 199 199 165 168 168 163 167 170 173 175 177 179 179 180 182
323 322 321 320 319 318 317 316 315 315 316 315 311 308 304 303 304 303 303 302 301 298 295 295 293 291 288 269 258 266 282 287 284 281 280 285 281 275 266 249 237 231 218 212 214 212 213 213 208 207 210 228 219 219 221 214 229 233 229 243 223 235 232 212 207 191 184 181 181 176 167 180 189 205 190 159 166 169 168 171 173 178 178 179 180 180 184 186
323 322 321 320 320 319 318 316 315 315 316 315 312 309 304 304 305 302 302 302 301 300 297 296 291 288 280 261 264 279 288 281 277 276 277 278 270 262 246 232 224 222 214 212 216 208 208 210 209 214 217 233 226 206 200 201 216 226 225 244 226 223 218 196 192 182 182 179 173 172 184 203 200 202 180 160 169 171 173 178 178 181 181 181 183 183 186 187
322 321 320 320 320 319 318 316 314 315 317 316 313 310 306 306 304 302 302 302 301 300 297 292 286 282 267 263 281 294 289 273 268 259 261 281 256 234 215 214 202 199 202 205 210 200 202 208 210 219 223 235 236 197 200 199 208 221 220 232 232 237 195 174 180 178 180 173 174 188 228 207 185 187 176 166 172 175 180 183 182 184 183 185 187 187 189 188
324 321 320 320 320 319 318 316 314 315 317 316 314 312 309 307 304 303 301 300 301 297 291 285 279 272 270 276 289 304 293 247 212 181 162 34 235 208 195 193 168 170 186 189 194 195 198 201 206 216 216 223 236 213 211 208 205 215 219 218 220 233 168 161 181 186 180 165 180 201 238 219 170 169 173 173 175 181 188 186 186 187 185 187 189 191 192 189
327 323 321 320 320 320 319 316 314 315 317 317 315 313 311 309 306 302 299 299 297 290 285 280 271 270 280 281 277 282 286 184 176 177 176 28 249 205 184 170 158 165 176 179 187 192 193 197 206 215 212 209 218 216 212 214 211 208 222 226 211 210 181 164 183 193 186 162 182 204 226 228 163 161 170 177 179 184 193 191 190 191 189 189 190 192 193 191
331 327 324 323 323 324 321 317 316 316 317 317 313 312 312 309 306 303 298 294 290 282 275 267 263 272 264 252 242 245 222 179 180 194 269 333 293 206 176 164 166 174 173 176 186 186 191 199 202 210 218 211 208 213 214 214 212 203 215 233 221 210 202 176 175 192 191 175 186 203 222 231 138 158 174 181 184 187 196 197 194 194 192 192 192 193 193 193
334 331 328 327 327 328 323 319 320 319 320 320 316 314 313 310 308 302 293 290 287 276 270 250 229 261 253 233 230 208 177 174 193 233 273 298 275 190 176 169 165 169 171 177 188 187 187 195 200 203 210 209 205 208 214 213 211 207 208 222 225 216 215 195 175 185 190 190 194 199 217 227 184 163 179 186 189 193 199 200 199 197 195 194 194 195 195 195
335 333 331 329 330 331 327 323 324 324 324 322 318 316 315 315 307 292 288 291 267 252 272 216 198 253 297 237 209 195 200 230 252 265 262 263 211 175 178 174 166 170 177 180 187 190 186 189 201 207 204 204 205 208 215 217 215 216 213 218 226 217 211 206 189 183 187 193 203 201 214 223 208 179 182 188 191 200 204 203 204 202 199 198 197 199 198 198
335 333 331 329 330 333 329 326 328 330 328 325 328 327 323 322 305 278 294 283 261 259 273 249 225 256 277 267 245 239 258 264 264 262 236 218 191 178 180 176 174 183 192 186 180 187 192 197 204 207 206 202 204 209 217 222 223 223 220 221 230 232 212 201 197 187 186 196 205 207 217 224 222 205 188 190 191 200 208 207 208 206 204 202 201 202 201 202
335 332 331 328 328 333 331 328 331 333 331 332 343 349 351 354 328 317 325 293 271 262 263 259 248 252 259 259 256 257 268 265 250 238 222 206 193 183 180 180 183 193 201 196 182 183 198 212 209 206 209 206 204 209 216 224 227 225 227 224 227 239 217 186 188 188 191 204 208 208 222 227 228 223 195 193 196 201 208 209 210 210 208 207 206 206 204 204
335 332 330 327 326 333 333 331 332 333 333 335 351 26 75 37 8 327 323 294 283 273 259 259 252 250 256 256 254 253 249 249 239 226 210 193 193 190 180 185 197 197 194 197 187 182 204 222 213 204 210 213 207 208 213 221 226 224 230 231 226 232 213 171 179 192 196 212 211 205 223 231 227 228 213 203 205 207 210 213 214 212 210 210 209 209 207 205
335 333 331 327 326 332 336 332 333 334 335 337 351 120 134 16 12 344 317 279 288 280 250 246 240 244 255 256 251 236 226 234 234 218 198 188 198 200 187 189 204 201 189 195 197 195 206 218 215 206 209 214 209 207 211 217 223 226 227 230 230 221 205 183 187 195 199 213 227 216 223 238 233 231 226 216 215 214 213 215 217 216 214 213 212 211 210 207
336 334 332 329 325 330 338 334 338 346 338 342 130 158 66 356 357 348 313 266 284 271 236 235 231 238 244 243 229 209 213 225 226 212 193 188 197 201 200 199 203 206 197 198 206 215 217 213 214 209 203 209 210 206 210 215 219 225 226 228 233 217 204 204 192 190 201 212 228 227 227 240 234 230 230 222 218 217 214 214 215 217 217 216 215 214 213 211
336 334 333 331 325 329 339 340 353 352 345 3 164 180 357 342 344 348 313 262 273 249 215 216 217 225 216 208 204 196 213 224 219 209 187 190 196 194 201 205 205 209 202 200 207 220 219 198 202 207 200 206 214 210 209 215 217 221 223 225 234 227 211 210 194 185 208 214 210 216 231 243 230 230 234 227 220 216 212 212 212 213 213 215 216 215 215 214
334 334 332 330 326 327 339 349 334 344 1 124 211 260 309 324 336 344 298 262 271 223 159 183 195 184 184 192 188 185 210 216 211 205 188 192 199 197 200 201 207 217 205 199 206 223 213 180 186 208 206 207 216 217 210 212 221 224 215 217 230 233 223 215 199 193 218 222 202 206 233 254 238 233 232 227 224 215 210 212 211 209 208 211 214 214 214 214
332 334 331 329 329 328 334 334 323 342 5 233 264 290 303 317 335 341 256 256 262 195 129 157 170 157 167 178 176 180 191 141 172 195 191 193 197 203 213 196 198 220 204 192 204 212 204 191 190 208 211 209 212 216 209 208 220 227 214 211 219 225 226 217 203 206 228 231 211 209 225 248 249 241 232 227 225 215 211 215 213 209 208 209 211 212 213 213
330 333 330 325 326 325 324 321 322 336 311 255 268 296 303 311 322 314 258 267 234 118 129 149 147 163 166 172 188 207 288 137 186 189 186 192 192 197 215 207 202 209 193 194 207 185 190 203 197 197 210 213 212 215 208 206 218 231 227 213 211 217 223 220 212 215 229 233 228 217 218 238 251 242 230 223 221 217 217 219 215 212 210 209 210 211 212 212
327 331 330 322 321 318 313 311 316 315 295 268 269 288 303 301 279 224 254 268 172 150 154 151 150 170 168 172 202 222 254 242 243 157 172 192 197 199 223 218 212 207 195 207 223 185 181 210 206 197 210 216 215 216 211 210 215 226 232 216 208 217 222 224 223 222 225 226 229 219 210 227 252 237 218 216 219 223 227 224 218 214 212 210 209 209 210 210
324 329 330 322 319 317 312 310 306 294 286 276 264 285 308 275 215 221 227 234 230 162 145 155 159 165 179 187 198 208 224 226 201 156 172 187 196 205 229 223 217 215 201 210 228 220 178 198 207 207 212 215 219 220 215 214 214 214 217 212 211 218 222 227 228 229 233 226 226 226 213 214 245 243 216 208 217 228 232 229 222 216 213 211 209 208 207 207
323 326 327 322 317 312 308 306 301 290 279 267 249 263 276 220 215 236 217 220 303 167 154 175 168 163 189 207 201 191 203 213 186 173 179 180 190 199 206 213 213 215 209 207 222 223 197 183 199 209 210 213 218 219 214 215 215 213 212 211 210 208 213 226 222 225 240 229 223 232 223 213 232 248 227 207 217 233 240 236 229 218 212 210 209 208 207 206
321 322 323 320 310 300 294 290 288 283 274 256 225 220 232 219 225 232 203 93 240 179 174 188 175 179 197 214 226 206 209 211 189 187 191 185 187 194 200 202 194 202 213 205 206 215 211 203 198 194 200 207 211 208 204 209 213 215 217 213 208 201 203 216 217 215 232 233 226 231 228 219 228 244 245 230 221 229 238 242 245 238 218 208 206 207 206 205
320 321 320 319 308 295 285 278 272 271 269 246 217 213 224 232 228 214 202 199 158 113 157 185 180 191 202 213 214 208 230 215 188 195 198 194 196 197 204 207 200 205 215 204 200 205 210 211 207 198 191 199 206 206 200 200 205 209 212 209 207 209 210 213 218 218 224 230 228 228 230 230 233 237 240 242 238 234 241 251 256 257 237 214 206 204 204 204
319 321 320 318 308 293 284 278 266 259 253 221 205 206 219 233 230 203 209 215 203 105 148 170 196 206 213 226 217 205 237 213 186 199 199 195 206 202 203 209 207 212 220 208 204 204 208 210 205 204 191 188 202 213 210 199 200 207 211 215 216 216 219 217 216 220 223 227 222 215 219 229 233 231 228 236 241 242 248 255 253 245 233 221 210 205 204 204
319 320 321 322 307 287 282 280 268 252 227 197 198 213 218 227 227 216 221 218 218 216 190 194 229 230 223 224 220 216 235 217 187 204 208 200 210 207 203 208 205 208 218 214 205 206 218 223 199 200 199 190 197 210 213 206 202 206 212 220 221 218 223 230 231 230 228 229 223 211 210 228 238 238 218 225 239 243 249 252 245 235 225 218 212 208 206 204
320 320 325 326 304 288 292 284 269 240 206 196 209 222 222 226 226 222 221 215 226 229 222 222 228 239 239 223 215 200 201 222 201 205 217 211 216 213 207 207 200 203 215 217 207 203 220 228 189 192 202 199 197 201 206 213 210 197 208 220 222 222 228 233 235 236 232 232 229 215 213 226 236 240 232 235 244 246 246 244 238 231 220 212 211 208 207 205
325 325 329 322 266 266 312 307 276 219 201 208 224 227 226 230 233 236 229 214 234 231 230 234 222 229 235 228 224 203 190 208 208 211 221 209 213 215 210 208 200 204 215 219 220 209 222 236 186 186 202 200 196 200 205 216 221 205 207 214 215 226 235 237 231 225 224 231 232 223 221 222 227 236 232 234 241 243 243 244 241 230 213 211 213 209 207 206
331 329 328 304 229 258 306 326 296 205 201 221 234 235 238 235 232 234 231 230 254 233 229 237 221 219 230 231 229 205 190 197 199 210 222 206 202 205 207 210 199 202 211 216 224 203 209 242 197 186 201 197 194 205 208 211 218 225 224 210 209 218 222 226 229 223 223 230 233 232 231 226 226 230 219 218 226 230 232 239 242 229 212 214 216 211 207 205
338 331 319 247 253 278 306 336 310 202 209 226 232 234 238 240 237 236 238 241 248 238 233 239 231 222 227 234 232 199 191 205 201 201 214 205 185 187 203 212 197 198 206 210 224 214 198 239 216 185 197 197 190 205 211 201 208 223 233 218 216 222 217 217 224 228 231 233 234 236 236 227 224 230 223 213 212 218 225 232 239 240 229 222 217 211 205 202
342 326 283 252 272 287 314 330 263 210 222 229 234 237 233 239 240 237 239 241 241 238 237 240 237 231 227 233 239 214 201 216 212 207 211 199 181 181 205 213 199 197 204 207 218 224 201 219 229 188 188 198 195 202 212 206 198 207 218 217 215 215 218 224 224 222 231 238 236 238 240 230 214 222 225 222 219 226 241 253 256 258 255 240 223 213 205 201
334 304 250 270 291 300 308 299 239 224 234 232 238 243 241 248 247 238 236 236 239 241 242 245 244 241 237 232 234 223 213 221 220 220 219 203 206 208 198 209 211 202 202 206 212 217 206 208 223 203 185 203 211 204 211 218 212 202 203 214 217 210 212 224 226 222 225 235 237 238 245 239 214 203 213 224 231 233 238 250 254 256 261 254 233 217 207 202
312 267 274 299 298 300 294 261 238 236 237 238 246 247 248 255 253 247 241 236 237 236 237 245 246 244 244 238 235 231 225 228 223 221 224 213 217 218 163 179 224 217 206 212 213 209 210 211 219 222 210 212 217 211 210 219 223 219 212 212 216 217 217 222 225 220 222 231 235 240 245 241 225 206 196 213 232 236 235 241 249 256 261 258 237 221 210 205
290 282 299 304 290 273 246 247 252 239 236 246 252 253 254 253 249 249 244 237 235 229 227 233 235 235 239 237 236 235 231 235 235 229 232 229 223 230 228 214 235 224 206 211 209 199 204 216 215 227 232 221 222 221 213 214 222 227 222 214 215 218 220 225 228 226 229 230 227 236 241 233 225 215 199 208 225 232 235 240 250 258 262 256 231 217 210 204
296 289 290 294 276 225 226 251 255 247 252 249 247 252 252 250 249 246 242 235 230 227 226 228 228 229 232 232 233 236 232 233 239 233 236 241 230 233 241 239 239 230 207 204 199 184 191 209 208 218 227 217 220 222 208 206 216 226 225 219 218 220 221 225 228 228 235 231 226 234 237 226 218 210 206 219 228 229 232 236 242 249 258 260 235 208 205 200
300 286 270 260 230 216 235 265 274 276 279 268 264 263 256 251 248 243 243 245 238 234 233 228 226 225 228 231 232 234 233 233 237 231 229 235 229 230 235 231 233 230 221 294 331 192 194 207 203 210 218 209 211 214 205 202 209 219 227 224 221 220 220 223 226 227 232 229 229 237 238 229 222 210 207 220 227 225 224 231 238 242 252 260 234 194 196 197
301 294 278 267 238 230 244 256 258 260 275 285 283 274 264 260 251 240 238 244 243 240 242 236 228 223 221 224 227 229 228 228 232 231 228 228 222 217 216 216 223 222 237 318 306 235 218 221 207 217 231 226 220 217 211 212 213 214 221 224 224 222 222 225 227 228 231 227 230 237 241 239 228 211 206 212 218 223 224 232 241 241 247 253 238 216 208 201
281 281 295 305 288 267 254 243 247 264 282 288 288 285 281 278 272 248 231 234 238 236 239 239 230 225 219 217 222 227 225 223 225 229 231 231 228 213 195 204 219 213 229 277 250 222 237 233 214 223 236 240 241 233 221 219 221 220 219 221 224 224 224 226 228 231 233 231 232 232 232 236 233 223 219 212 214 230 234 235 243 247 252 254 244 235 226 209
268 278 299 317 304 281 277 294 316 320 302 291 282 278 281 278 278 269 242 237 237 230 230 233 227 227 228 222 222 226 226 225 225 226 229 229 232 233 220 219 223 213 212 236 223 208 236 236 226 231 235 237 240 239 234 229 226 226 225 221 221 223 224 227 231 233 234 236 240 232 224 228 230 230 232 226 220 232 236 236 243 250 255 256 238 224 224 212
275 278 289 302 290 284 301 311 313 306 292 288 280 269 274 273 269 271 272 265 247 231 229 232 227 226 228 229 230 229 225 225 224 221 223 223 225 233 235 231 224 216 218 232 222 209 229 235 233 240 240 237 235 235 237 236 230 228 229 227 225 224 224 226 232 234 235 239 243 240 234 232 228 226 234 238 236 238 242 242 244 249 254 256 242 226 226 217
284 286 289 300 293 285 288 288 288 289 280 276 271 265 267 267 268 282 294 289 274 249 234 233 237 240 235 230 231 231 228 236 242 232 225 223 220 223 233 237 230 216 216 227 218 199 217 231 229 242 248 240 235 235 236 238 236 232 230 230 231 230 227 227 228 230 233 237 239 241 242 239 230 225 233 239 239 240 245 245 244 248 251 253 249 239 233 223
280 286 287 290 288 280 277 271 268 276 276 267 266 267 266 269 294 324 310 280 273 270 264 270 286 295 273 237 229 234 239 251 266 271 280 268 251 250 252 251 249 225 214 219 208 192 214 233 227 241 250 237 230 232 233 237 241 238 232 228 229 231 231 230 228 226 229 232 233 236 241 238 229 228 232 234 234 237 242 242 242 244 246 247 247 243 236 228
271 278 272 269 276 278 277 275 267 265 269 273 280 290 292 296 321 335 315 282 273 282 318 339 334 323 302 260 241 275 309 310 298 289 287 280 272 274 274 269 269 259 233 223 217 206 219 236 230 235 248 245 237 234 232 233 237 237 232 229 230 232 234 235 234 229 227 229 231 233 236 236 232 231 231 228 229 233 237 238 240 243 243 243 243 243 240 235